N0KTA-2 Weather Reports


Display with metric or nautical units.
time (UTC)temp
F
wind
direction
speed
MPH
gust
MPH
rain 1hr
in
rain 24hr
in
rain mn
in
humidity
%
barometer
mb
20260904123051 75 185 2.0 3.0 0.00 0.00 0.00 82 1007.5
20260904122049 75 183 2.0 6.0 0.00 0.00 0.00 82 1007.5
20260904121050 75 187 2.0 3.0 0.00 0.00 0.00 82 1007.5
20260904120051 75 192 2.0 3.0 0.00 0.00 0.00 81 1007.4
20260904115050 75 185 1.0 2.0 0.00 0.00 0.00 81 1007.4
20260904114051 75 181 2.0 3.0 0.00 0.00 0.00 81 1007.4
20260904113050 76 198 2.0 3.0 0.00 0.00 0.00 80 1007.3
20260904112050 76 177 1.0 2.0 0.00 0.00 0.00 80 1007.3
20260904111051 76 171 1.0 2.0 0.00 0.00 0.00 79 1007.3
20260904110050 77 192 1.0 5.0 0.00 0.00 0.00 79 1007.0
20260904105051 77 192 1.0 3.0 0.00 0.00 0.00 78 1007.1
20260904104051 77 186 1.0 3.0 0.00 0.00 0.00 78 1007.2
20260904103050 77 185 1.0 2.0 0.00 0.00 0.00 78 1007.2
20260904102049 78 188 1.0 1.0 0.00 0.00 0.00 77 1007.0
20260904101050 78 171 2.0 3.0 0.00 0.00 0.00 77 1006.9
20260904100050 78 200 3.0 5.0 0.00 0.00 0.00 76 1006.9
20260904095051 78 189 2.0 3.0 0.00 0.00 0.00 76 1006.9
20260904094050 78 186 2.0 3.0 0.00 0.00 0.00 75 1006.8
20260904093049 79 193 2.0 3.0 0.00 0.00 0.00 75 1006.7
20260904092050 79 219 1.0 1.0 0.00 0.00 0.00 75 1006.7
20260904091049 79 195 2.0 5.0 0.00 0.00 0.00 74 1006.6
20260904090050 79 206 1.0 2.0 0.00 0.00 0.00 74 1006.6
20260904085051 79 194 1.0 3.0 0.00 0.00 0.00 73 1006.6
20260904084050 79 190 3.0 6.0 0.00 0.00 0.00 73 1006.6
20260904083049 79 195 2.0 5.0 0.00 0.00 0.00 73 1006.7
20260904082050 79 206 1.0 3.0 0.00 0.00 0.00 73 1006.7
20260904081051 80 205 1.0 3.0 0.00 0.00 0.00 72 1006.7
20260904080051 80 217 0.0 1.0 0.00 0.00 0.00 71 1006.6
20260904075050 80 217 1.0 1.0 0.00 0.00 0.00 70 1006.6
20260904074049 81 182 2.0 3.0 0.00 0.00 0.00 70 1006.6
20260904073051 81 207 0.0 1.0 0.00 0.00 0.00 70 1006.6
20260904072049 81 195 1.0 1.0 0.00 0.00 0.00 69 1006.7
20260904071051 81 205 2.0 3.0 0.00 0.00 0.00 68 1006.6
20260904070050 82 189 1.0 1.0 0.00 0.00 0.00 68 1006.7
20260904065051 82 304 0.0 1.0 0.00 0.00 0.00 67 1006.6
20260904064050 82 204 2.0 5.0 0.00 0.00 0.00 67 1006.6
20260904063049 82 185 5.0 6.0 0.00 0.00 0.00 66 1006.6
20260904062050 83 201 3.0 5.0 0.00 0.00 0.00 66 1006.6
20260904061049 83 195 3.0 5.0 0.00 0.00 0.00 66 1006.6
20260904060050 83 191 3.0 7.0 0.00 0.00 0.00 66 1006.6
20260904055049 83 187 3.0 5.0 0.00 0.00 0.00 66 1006.6
20260904054050 83 188 5.0 6.0 0.00 0.00 0.00 65 1006.6
20260904053050 83 192 2.0 7.0 0.00 0.00 0.00 65 1006.5
20260904052050 84 192 3.0 5.0 0.00 0.00 0.00 65 1006.5
20260904051051 84 189 3.0 7.0 0.00 0.00 0.00 65 1006.4
20260904050050 84 188 5.0 6.0 0.00 0.00 0.00 64 1006.3
20260904045050 85 197 2.0 3.0 0.00 0.00 0.00 64 1006.2
20260904044049 85 188 3.0 6.0 0.00 0.00 0.00 63 1006.1
20260904043050 85 195 6.0 10.0 0.00 0.00 0.00 62 1006.1
20260904042050 85 189 5.0 6.0 0.00 0.00 0.00 62 1006.2
20260904041051 85 192 3.0 5.0 0.00 0.00 0.00 62 1006.1
20260904040050 86 186 5.0 13.0 0.00 0.00 0.00 62 1006.3
20260904035049 86 184 5.0 6.0 0.00 0.00 0.00 61 1006.3
20260904034051 86 183 5.0 9.0 0.00 0.00 0.00 61 1006.3
20260904033050 87 187 5.0 5.0 0.00 0.00 0.00 60 1006.3
20260904032049 87 185 3.0 5.0 0.00 0.00 0.00 60 1006.2
20260904031050 87 199 3.0 3.0 0.00 0.00 0.00 60 1006.2
20260904030050 87 164 5.0 6.0 0.00 0.00 0.00 59 1006.3
20260904025049 88 196 3.0 9.0 0.00 0.00 0.00 58 1006.2
20260904024051 88 190 3.0 5.0 0.00 0.00 0.00 58 1006.1
20260904023049 89 206 3.0 5.0 0.00 0.00 0.00 57 1005.9
20260904022050 89 188 2.0 6.0 0.00 0.00 0.00 56 1005.7
20260904021050 90 185 3.0 7.0 0.00 0.00 0.00 55 1005.7
20260904020050 90 191 5.0 5.0 0.00 0.00 0.00 55 1005.7
20260904015051 91 192 7.0 8.0 0.00 0.00 0.00 54 1005.3
20260904014050 91 187 5.0 12.0 0.00 0.00 0.00 53 1005.1
20260904013051 92 185 7.0 13.0 0.00 0.00 0.00 52 1004.8
20260904012049 92 183 6.0 9.0 0.00 0.00 0.00 51 1004.7
20260904011050 92 185 6.0 12.0 0.00 0.00 0.00 50 1004.6
20260904010051 93 189 6.0 7.0 0.00 0.00 0.00 49 1004.6
20260904005050 94 185 5.0 10.0 0.00 0.00 0.00 48 1004.5
20260904004051 94 185 3.0 5.0 0.00 0.00 0.00 47 1004.4
20260904003050 95 185 7.0 10.0 0.00 0.00 0.00 46 1004.2
20260904002049 95 189 6.0 7.0 0.00 0.00 0.00 45 1004.1
20260904001050 96 185 6.0 7.0 0.00 0.00 0.00 44 1004.1
20260904000051 96 198 8.0 9.0 0.00 0.00 0.00 43 1004.0
20260903235050 97 187 3.0 13.0 0.00 0.00 0.00 43 1004.0
20260903234049 97 187 6.0 15.0 0.00 0.00 0.00 42 1004.0
20260903233050 97 184 8.0 10.0 0.00 0.00 0.00 42 1004.0
20260903232049 97 174 10.0 17.0 0.00 0.00 0.00 42 1003.9
20260903231050 97 189 3.0 6.0 0.00 0.00 0.00 41 1003.8
20260903230050 98 182 5.0 6.0 0.00 0.00 0.00 40 1003.7
20260903225051 98 187 8.0 13.0 0.00 0.00 0.00 40 1003.8
20260903224050 98 178 3.0 6.0 0.00 0.00 0.00 40 1003.7
20260903223050 98 181 6.0 12.0 0.00 0.00 0.00 40 1003.8
20260903222050 98 193 5.0 9.0 0.00 0.00 0.00 39 1003.8
20260903221049 98 182 5.0 10.0 0.00 0.00 0.00 40 1003.7
20260903220050 98 182 5.0 9.0 0.00 0.00 0.00 40 1003.9
20260903215049 99 177 6.0 12.0 0.00 0.00 0.00 39 1003.9
20260903214050 99 189 2.0 7.0 0.00 0.00 0.00 38 1003.9
20260903213049 98 190 7.0 7.0 0.00 0.00 0.00 38 1003.9
20260903212050 98 183 6.0 12.0 0.00 0.00 0.00 39 1004.0
20260903211049 98 202 3.0 12.0 0.00 0.00 0.00 39 1004.1
20260903210050 98 188 10.0 15.0 0.00 0.00 0.00 38 1004.2
20260903205049 98 189 6.0 9.0 0.00 0.00 0.00 40 1004.3
20260903204049 98 181 6.0 7.0 0.00 0.00 0.00 40 1004.3
20260903203051 98 187 3.0 6.0 0.00 0.00 0.00 41 1004.4
20260903202049 98 186 7.0 12.0 0.00 0.00 0.00 41 1004.4
20260903201050 98 192 5.0 9.0 0.00 0.00 0.00 42 1004.5
20260903200049 97 203 6.0 10.0 0.00 0.00 0.00 42 1004.7
20260903195050 97 206 5.0 10.0 0.00 0.00 0.00 43 1004.9
20260903194049 97 211 9.0 13.0 0.00 0.00 0.00 43 1005.0
20260903193050 97 198 7.0 12.0 0.00 0.00 0.00 44 1005.2
20260903192049 97 189 3.0 7.0 0.00 0.00 0.00 45 1005.4
20260903191050 96 181 5.0 9.0 0.00 0.00 0.00 46 1005.5
20260903190050 96 193 7.0 9.0 0.00 0.00 0.00 46 1005.5
20260903185050 95 194 3.0 13.0 0.00 0.00 0.00 47 1005.7
20260903184050 95 277 1.0 3.0 0.00 0.00 0.00 47 1006.0
20260903183049 95 184 9.0 12.0 0.00 0.00 0.00 48 1006.1
20260903182050 94 183 6.0 10.0 0.00 0.00 0.00 49 1006.1
20260903181049 94 184 2.0 6.0 0.00 0.00 0.00 49 1006.5
20260903180050 94 185 8.0 10.0 0.00 0.00 0.00 49 1006.6
20260903175049 94 208 5.0 7.0 0.00 0.00 0.00 50 1006.6
20260903174050 93 190 9.0 15.0 0.00 0.00 0.00 49 1006.7
20260903173049 93 175 1.0 9.0 0.00 0.00 0.00 50 1006.8
20260903172050 92 211 7.0 16.0 0.00 0.00 0.00 50 1007.1
20260903171050 93 189 7.0 10.0 0.00 0.00 0.00 50 1007.1
20260903170050 92 187 7.0 10.0 0.00 0.00 0.00 52 1007.1
20260903165049 91 269 1.0 2.0 0.00 0.00 0.00 53 1007.2
20260903164050 91 206 9.0 14.0 0.00 0.00 0.00 54 1007.2
20260903163049 90 206 3.0 12.0 0.00 0.00 0.00 55 1007.4
20260903162050 89 213 8.0 12.0 0.00 0.00 0.00 58 1007.5
20260903161049 89 210 5.0 9.0 0.00 0.00 0.00 60 1007.7
20260903160050 87 212 0.0 6.0 0.00 0.00 0.00 60 1007.8
20260903155049 87 262 2.0 9.0 0.00 0.00 0.00 61 1007.8
20260903154050 87 232 5.0 16.0 0.00 0.00 0.00 61 1007.8
20260903153050 86 191 6.0 12.0 0.00 0.00 0.00 62 1007.8
20260903152050 86 210 2.0 9.0 0.00 0.00 0.00 63 1007.8
20260903151050 85 210 2.0 5.0 0.00 0.00 0.00 65 1007.8
20260903150049 84 181 8.0 14.0 0.00 0.00 0.00 66 1007.8
20260903145050 83 193 7.0 13.0 0.00 0.00 0.00 66 1007.9
20260903144049 83 193 5.0 5.0 0.00 0.00 0.00 68 1007.9
20260903143049 82 179 8.0 12.0 0.00 0.00 0.00 69 1008.0
20260903142049 82 217 5.0 9.0 0.00 0.00 0.00 69 1008.0
20260903141050 81 192 5.0 7.0 0.00 0.00 0.00 70 1008.1
20260903140050 81 176 5.0 12.0 0.00 0.00 0.00 72 1008.2
20260903135049 80 224 3.0 3.0 0.00 0.00 0.00 72 1008.2
20260903134050 79 198 3.0 7.0 0.00 0.00 0.00 73 1008.2
20260903133049 79 184 5.0 6.0 0.00 0.00 0.00 73 1008.2
20260903132050 78 190 6.0 6.0 0.00 0.00 0.00 74 1008.2
20260903131050 78 185 3.0 5.0 0.00 0.00 0.00 74 1008.2
20260903130049 78 199 3.0 5.0 0.00 0.00 0.00 74 1007.9
20260903125049 78 198 6.0 7.0 0.00 0.00 0.00 74 1007.9
20260903124049 77 190 6.0 10.0 0.00 0.00 0.00 73 1007.9